Location: Observatoire de l'Aigle
(47.0607°N, 71.3152°W)
Time: 04:51:10
(UTC-05:00)

Amateur Radio Satellites - All Passes

Search period start: 26 November 2014 04:21
Search period end: 27 November 2014 04:21
Location: Observatoire de l'Aigle, 47.0607°N, 71.3152°W

Satellite Date Start Highest point End Downlink Frequencies (MHz)
Time Altitude Azimuth
ISS 26 Nov 04:24:43 04:28:02 82° 25° (NNE) 04:31:20 145.825
PRISM 26 Nov 04:32:56 04:37:00 50° 71° (ENE) 04:41:08 437.425
JAS-2 26 Nov 04:36:45 04:43:40 47° 96° (E) 04:49:47 435.910
Gurwin Techsat 1B 26 Nov 04:42:03 04:44:11 13° 307° (NW) 04:46:19 435.225
AIST 1 26 Nov 04:49:00 04:50:15 11° 62° (ENE) 04:51:30
BEESAT 3 26 Nov 04:49:45 04:53:46 45° 240° (WSW) 04:57:44 437.485
MOZHAYETS 4 26 Nov 04:58:26 05:02:01 22° 268° (W) 05:05:39
HORYU 2 26 Nov 05:00:26 05:02:01 12° 304° (WNW) 05:03:36 437.375
CUBESAT XI-V 26 Nov 05:01:36 05:05:59 39° 69° (ENE) 05:10:23 437.345
BEESAT 2 26 Nov 05:05:20 05:09:12 36° 242° (WSW) 05:13:01 435.950
YUBILEINY 26 Nov 05:05:34 05:10:27 16° 309° (NW) 05:15:21 435.215
Cubesat XI-IV 26 Nov 05:07:54 05:11:56 22° 91° (E) 05:15:57 437.490
O/OREOS (USA 219) 26 Nov 05:32:12 05:36:34 54° 110° (ESE) 05:40:57 437.305
STRAND 1 26 Nov 05:32:16 05:37:25 77° 73° (ENE) 05:42:34 437.568
AIST 2 26 Nov 05:39:59 05:43:51 33° 243° (WSW) 05:47:40 435.215
CUTE-I 26 Nov 05:48:36 05:53:44 46° 99° (E) 05:58:48 437.470
PCSat 26 Nov 05:54:38 05:57:45 16° 256° (WSW) 06:00:52 145.827
ISS 26 Nov 06:01:56 06:04:21 19° 222° (SW) 06:06:45 145.825
SO-50 26 Nov 06:02:59 06:05:50 16° 335° (NNW) 06:08:44 436.795
PRISM 26 Nov 06:10:04 06:12:52 17° 269° (W) 06:15:41 437.425
AO-7 26 Nov 06:11:36 06:18:36 31° 308° (NW) 06:25:36 29.400- 29.500
JAS-2 26 Nov 06:21:58 06:28:35 39° 298° (WNW) 06:34:31 435.910
AIST 1 26 Nov 06:24:13 06:28:38 88° 261° (W) 06:32:59
CUBESAT XI-V 26 Nov 06:39:34 06:43:32 26° 266° (W) 06:47:32 437.345
Cubesat XI-IV 26 Nov 06:47:11 06:52:25 58° 290° (WNW) 06:57:37 437.490
GONETS M04 26 Nov 06:57:33 07:05:18 37° 84° (E) 07:13:05
O/OREOS (USA 219) 26 Nov 07:12:54 07:16:19 21° 310° (NW) 07:19:44 437.305
STRAND 1 26 Nov 07:14:10 07:17:11 16° 271° (W) 07:20:13 437.568
CUTE-I 26 Nov 07:29:06 07:33:35 29° 298° (WNW) 07:38:03 437.470
BRITE-PL 26 Nov 07:32:24 07:33:10 10° 87° (E) 07:33:56 437.365/2234.400
SEEDS 26 Nov 07:41:49 07:43:51 13° 89° (E) 07:45:53 437.485
DOVE 4 26 Nov 07:57:51 07:59:02 11° 88° (E) 08:00:12 437.250
AAUSAT CUBESAT 2 26 Nov 07:58:03 08:00:26 15° 90° (E) 08:02:49 437.432
CANX-2 26 Nov 08:08:44 08:12:33 30° 95° (E) 08:16:21 2200.000
COMPASS 1 26 Nov 08:12:41 08:16:05 23° 93° (E) 08:19:30 437.405
NANOSAT C BR1 26 Nov 08:21:30 08:23:35 14° 59° (ENE) 08:25:40 145.865
HO-68 26 Nov 08:24:54 08:31:50 48° 100° (E) 08:38:42 435.675
Cubesat XI-IV 26 Nov 08:30:26 08:31:26 11° 309° (NW) 08:32:26 437.490
QB50P1 26 Nov 08:30:44 08:33:25 17° 61° (ENE) 08:36:05 145.935-145.965
TIGRISAT 26 Nov 08:31:06 08:34:22 22° 64° (ENE) 08:37:39 435.000
CINEMA 3 26 Nov 08:31:14 08:33:52 16° 91° (E) 08:36:32 145.822/145.860
GOMX 1 26 Nov 08:38:31 08:42:25 38° 98° (E) 08:46:23 467.674
BUGSAT 1 26 Nov 08:40:11 08:42:58 17° 62° (ENE) 08:45:43 437.445
CUTE 1.7 & AOD 2 26 Nov 08:43:05 08:47:21 63° 101° (E) 08:51:37 437.475
UNISAT 6 26 Nov 08:44:21 08:48:03 29° 67° (ENE) 08:51:47 437.425
GONETS M04 26 Nov 08:53:05 09:01:43 58° 286° (WNW) 09:10:28
POPSAT HIP 1 26 Nov 08:54:28 08:58:03 27° 66° (ENE) 09:01:38 437.405
BRITE-PL 26 Nov 09:08:08 09:12:18 75° 285° (WNW) 09:16:27 437.365/2234.400
AISAT 26 Nov 09:08:12 09:10:00 12° 88° (E) 09:11:48 437.250
UKube-1 26 Nov 09:09:48 09:13:47 35° 97° (E) 09:17:45 .
ANTELSAT 26 Nov 09:12:34 09:16:45 56° 72° (ENE) 09:20:57 437.575/2403.000
FUNcube-1 26 Nov 09:13:29 09:16:43 21° 93° (E) 09:19:59 145.935
SEEDS 26 Nov 09:15:54 09:20:10 68° 286° (WNW) 09:24:24 437.485
Oscar 11 26 Nov 09:20:43 09:25:00 54° 100° (E) 09:29:16 145.826/435.025
POLYITAN 1 26 Nov 09:27:28 09:31:38 57° 72° (ENE) 09:35:49 437.675
SO-50 26 Nov 09:28:18 09:31:07 15° 25° (NNE) 09:33:58 436.795
QB50P2 26 Nov 09:29:21 09:33:33 60° 73° (ENE) 09:37:45 145.880/145.840
AAUSAT CUBESAT 2 26 Nov 09:32:20 09:36:31 59° 287° (WNW) 09:40:41 437.432
DOVE 4 26 Nov 09:33:11 09:37:21 75° 285° (WNW) 09:41:36 437.250
DUCHIFAT 1 26 Nov 09:35:13 09:39:26 68° 74° (ENE) 09:43:40 145.980
DELFI C3 26 Nov 09:36:19 09:40:27 68° 102° (ESE) 09:44:35 145.870
UWE-3 26 Nov 09:39:37 09:43:41 45° 99° (E) 09:47:49 435.000/436.395/437.385
CUBEBUG 2 26 Nov 09:39:50 09:43:59 52° 100° (E) 09:48:12 437.445
50 SAT 26 Nov 09:43:13 09:46:22 21° 93° (E) 09:49:32 437.505
CANX-2 26 Nov 09:44:44 09:48:27 29° 293° (WNW) 09:52:10 2200.000
DX 1 26 Nov 09:45:23 09:49:46 83° 104° (ESE) 09:54:06 434.975-435.025
COMPASS 1 26 Nov 09:48:01 09:51:57 37° 291° (WNW) 09:55:52 437.405
NANOSAT C BR1 26 Nov 09:54:40 09:58:55 75° 257° (WSW) 10:03:11 145.865
HUMSAT D 26 Nov 09:55:36 09:59:26 35° 97° (E) 10:03:17 437.325/437.525
QB50P1 26 Nov 10:04:41 10:08:53 59° 259° (W) 10:13:06 145.935-145.965
TIGRISAT 26 Nov 10:06:54 10:10:55 40° 262° (W) 10:14:58 435.000
CINEMA 3 26 Nov 10:07:19 10:11:25 53° 288° (WNW) 10:15:37 145.822/145.860
HO-68 26 Nov 10:12:52 10:19:26 40° 300° (WNW) 10:25:57 435.675
BUGSAT 1 26 Nov 10:13:54 10:18:05 56° 259° (W) 10:22:15 437.445
ZACube-1 26 Nov 10:14:04 10:18:18 88° 104° (ESE) 10:22:37 437.345
ESTCUBE 1 26 Nov 10:16:17 10:20:00 24° 94° (E) 10:23:42 437.505/2401.250
VELOX 1 26 Nov 10:16:19 10:20:42 57° 101° (E) 10:25:03 145.980
GOMX 1 26 Nov 10:17:13 10:20:24 22° 295° (WNW) 10:23:37 467.674
CUTE 1.7 & AOD 2 26 Nov 10:20:16 10:22:50 16° 299° (WNW) 10:25:24 437.475
UNISAT 6 26 Nov 10:21:07 10:24:51 29° 264° (W) 10:28:36 437.425
POPSAT HIP 1 26 Nov 10:30:02 10:33:52 33° 263° (W) 10:37:44 437.405
AISAT 26 Nov 10:42:46 10:47:13 77° 286° (WNW) 10:51:37 437.250
SPROUT 26 Nov 10:44:12 10:44:50 10° 87° (E) 10:45:28 437.525
UKube-1 26 Nov 10:46:12 10:49:50 26° 295° (WNW) 10:53:27 .
FUNcube-1 26 Nov 10:49:17 10:53:15 41° 290° (WNW) 10:57:16 145.935
ANTELSAT 26 Nov 10:51:24 10:53:57 15° 270° (W) 10:56:30 437.575/2403.000
CUBEBUG 1 26 Nov 10:54:35 10:58:54 55° 100° (E) 11:03:09 437.445
GONETS M04 26 Nov 10:56:31 11:00:56 14° 311° (NW) 11:05:22
Oscar 11 26 Nov 10:57:49 11:00:48 18° 298° (WNW) 11:03:47 145.826/435.025
POLYITAN 1 26 Nov 11:05:28 11:07:58 15° 270° (W) 11:10:29 437.675
QB50P2 26 Nov 11:07:30 11:09:53 15° 270° (W) 11:12:16 145.880/145.840
SO-50 26 Nov 11:08:03 11:12:47 50° 46° (NE) 11:17:34 436.795
DELFI C3 26 Nov 11:13:06 11:15:15 14° 300° (WNW) 11:17:24 145.870
YUBILEINY 26 Nov 11:13:24 11:19:25 20° 55° (NE) 11:25:22 435.215
DUCHIFAT 1 26 Nov 11:13:49 11:15:47 13° 271° (W) 11:17:45 145.980
UWE-3 26 Nov 11:16:52 11:19:59 20° 296° (WNW) 11:23:08 435.000/436.395/437.385
Oscar 19 26 Nov 11:17:19 11:21:31 27° 62° (ENE) 11:25:44 437.125/150
CUBEBUG 2 26 Nov 11:17:30 11:20:22 18° 297° (WNW) 11:23:16 437.445
50 SAT 26 Nov 11:18:04 11:21:49 37° 291° (WNW) 11:25:34 437.505
DX 1 26 Nov 11:23:24 11:25:23 13° 302° (WNW) 11:27:22 434.975-435.025
HUMSAT D 26 Nov 11:31:44 11:35:07 24° 294° (WNW) 11:38:31 437.325/437.525
AO-7 26 Nov 11:44:30 11:46:01 11° 29° (NNE) 11:47:33 29.400- 29.500
ZACube-1 26 Nov 11:52:40 11:54:04 12° 302° (WNW) 11:55:29 437.345
ESTCUBE 1 26 Nov 11:52:46 11:57:01 40° 291° (WNW) 12:01:14 437.505/2401.250
VELOX 1 26 Nov 11:53:54 11:56:53 18° 299° (WNW) 11:59:51 145.980
CUSAT 1 26 Nov 12:00:24 12:02:16 18° 93° (E) 12:04:08 437.405
HO-68 26 Nov 12:04:40 12:05:14 10° 322° (NW) 12:05:47 435.675
AUBIESAT-1 26 Nov 12:05:14 12:08:04 15° 93° (E) 12:10:52 437.475
TISAT 1 26 Nov 12:06:19 12:10:34 84° 104° (ESE) 12:14:46 437.305
BEESAT 26 Nov 12:08:40 12:11:32 16° 89° (E) 12:14:24 436.000
M-CUBED/EXP-1 PRIME 26 Nov 12:10:16 12:13:42 19° 95° (E) 12:17:04 437.505
ITAMSAT 1 26 Nov 12:10:41 12:15:17 33° 64° (ENE) 12:19:54 435.822/435.867
SPROUT 26 Nov 12:17:14 12:21:33 85° 285° (WNW) 12:25:49 437.525
AISAT 26 Nov 12:22:13 12:23:04 11° 305° (NW) 12:23:55 437.250
DANDE 26 Nov 12:27:15 12:29:45 34° 97° (E) 12:32:10 436.750
CUBEBUG 1 26 Nov 12:31:55 12:34:54 18° 299° (WNW) 12:37:51 437.445
Gurwin Techsat 1B 26 Nov 12:44:46 12:49:37 38° 66° (ENE) 12:54:29 435.225
HORYU 2 26 Nov 12:48:28 12:51:19 17° 60° (ENE) 12:54:10 437.375
SO-50 26 Nov 12:49:01 12:53:08 28° 245° (WSW) 12:57:15 436.795
Oscar 19 26 Nov 12:55:42 13:00:37 47° 261° (W) 13:05:34 437.125/150
ITUPSAT 1 26 Nov 13:03:19 13:08:00 49° 100° (E) 13:12:38 437.325
YUBILEINY 26 Nov 13:09:06 13:17:52 79° 80° (E) 13:26:33 435.215
SWISSCUBE 26 Nov 13:14:03 13:18:52 68° 102° (ESE) 13:23:37 437.505
STARS 26 Nov 13:24:52 13:26:47 13° 89° (E) 13:28:42 437.465
AO-7 26 Nov 13:29:06 13:36:19 35° 54° (NE) 13:43:33 29.400- 29.500
AUBIESAT-1 26 Nov 13:38:38 13:43:35 79° 291° (WNW) 13:48:26 437.475
TISAT 1 26 Nov 13:44:08 13:45:47 12° 302° (WNW) 13:47:26 437.305
M-CUBED/EXP-1 PRIME 26 Nov 13:44:13 13:49:08 66° 293° (WNW) 13:53:58 437.505
CUSAT 1 26 Nov 13:44:20 13:45:26 12° 293° (WNW) 13:46:32 437.405
BEESAT 26 Nov 13:45:06 13:49:53 69° 287° (WNW) 13:54:38 436.000
ITAMSAT 1 26 Nov 13:49:50 13:54:42 39° 263° (W) 13:59:34 435.822/435.867
SPROUT 26 Nov 13:55:49 13:56:56 11° 303° (WNW) 13:58:02 437.525
O/OREOS (USA 219) 26 Nov 14:00:15 14:03:55 24° 52° (NE) 14:07:34 437.305
KKS-1 26 Nov 14:04:38 14:08:55 45° 99° (E) 14:13:10 437.445
PHONESAT 2.4 26 Nov 14:07:42 14:09:24 13° 154° (SSE) 14:11:06 2401.200-2431.200
RS-15 26 Nov 14:09:36 14:17:29 24° 101° (E) 14:25:21 29.354- 29.394
VERMONT LUNAR 26 Nov 14:16:07 14:18:29 17° 159° (SSE) 14:20:52 437.305
HORYU 2 26 Nov 14:23:09 14:27:32 62° 258° (WSW) 14:31:58 437.375
Gurwin Techsat 1B 26 Nov 14:24:49 14:29:37 34° 264° (W) 14:34:26 435.225
MaSat-1 26 Nov 14:31:49 14:34:31 36° 115° (ESE) 14:37:01 437.345
ITUPSAT 1 26 Nov 14:41:49 14:45:37 24° 298° (WNW) 14:49:23 437.325
JAS-2 26 Nov 14:50:39 14:57:26 35° 60° (ENE) 15:04:16 435.910
SWISSCUBE 26 Nov 14:53:02 14:56:14 18° 301° (WNW) 14:59:24 437.505
STARS 26 Nov 14:59:24 15:03:48 74° 286° (WNW) 15:08:11 437.465
YUBILEINY 26 Nov 15:07:05 15:13:43 25° 281° (WNW) 15:20:19 435.215
AUBIESAT-1 26 Nov 15:15:12 15:17:48 15° 309° (NW) 15:20:23 437.475
AO-7 26 Nov 15:20:22 15:28:36 67° 255° (WSW) 15:36:56 29.400- 29.500
M-CUBED/EXP-1 PRIME 26 Nov 15:21:17 15:23:17 13° 311° (NW) 15:25:17 437.505
BEESAT 26 Nov 15:25:46 15:26:51 11° 306° (NW) 15:27:56 436.000
CUTE-I 26 Nov 15:36:06 15:39:31 18° 57° (ENE) 15:42:57 437.470
O/OREOS (USA 219) 26 Nov 15:39:16 15:43:32 45° 251° (WSW) 15:47:47 437.305
KKS-1 26 Nov 15:41:54 15:45:18 22° 297° (WNW) 15:48:42 437.445
PHONESAT 2.4 26 Nov 15:44:20 15:47:29 27° 171° (S) 15:50:39 2401.200-2431.200
VERMONT LUNAR 26 Nov 15:53:11 15:56:21 28° 176° (S) 15:59:31 437.305
MaSat-1 26 Nov 16:07:57 16:09:09 12° 310° (NW) 16:10:20 437.345
RS-15 26 Nov 16:17:12 16:28:09 84° 124° (SE) 16:39:10 29.354- 29.394
Cubesat XI-IV 26 Nov 16:32:37 16:37:44 47° 68° (ENE) 16:42:52 437.490
JAS-2 26 Nov 16:34:20 16:41:58 65° 260° (W) 16:49:48 435.910
MOZHAYETS 4 26 Nov 16:49:19 16:54:00 72° 102° (ESE) 16:58:39
GONETS M04 26 Nov 17:03:25 17:09:58 22° 57° (ENE) 17:16:27
CUTE-I 26 Nov 17:13:34 17:18:56 83° 255° (WSW) 17:24:20 437.470
HO-68 26 Nov 17:14:17 17:17:11 13° 42° (NE) 17:20:04 435.675
AO-7 26 Nov 17:19:04 17:23:00 14° 276° (W) 17:26:58 29.400- 29.500
PHONESAT 2.4 26 Nov 17:22:34 17:25:46 27° 188° (S) 17:28:58 2401.200-2431.200
VERMONT LUNAR 26 Nov 17:31:22 17:34:18 23° 193° (SSW) 17:37:15 437.305
STRAND 1 26 Nov 17:40:41 17:44:27 20° 91° (E) 17:48:10 437.568
PRISM 26 Nov 17:48:39 17:52:51 56° 101° (E) 17:56:59 437.425
Cubesat XI-IV 26 Nov 18:13:32 18:18:02 27° 266° (W) 18:22:34 437.490
JAS-2 26 Nov 18:24:47 18:28:26 14° 280° (W) 18:32:09 435.910
MOZHAYETS 4 26 Nov 18:27:51 18:30:41 16° 300° (WNW) 18:33:30
RS-15 26 Nov 18:31:38 18:41:47 41° 332° (NNW) 18:52:07 29.354- 29.394
CUBESAT XI-V 26 Nov 18:32:30 18:37:10 64° 101° (E) 18:41:46 437.345
SEEDS 26 Nov 18:37:40 18:40:03 15° 61° (ENE) 18:42:27 437.485
BRITE-PL 26 Nov 18:44:43 18:48:24 22° 65° (ENE) 18:51:55 437.365/2234.400
BEESAT 3 26 Nov 18:48:51 18:51:27 16° 111° (ESE) 18:54:04 437.485
AAUSAT CUBESAT 2 26 Nov 18:52:54 18:55:28 16° 61° (ENE) 18:58:03 437.432
PCSat 26 Nov 18:54:23 18:59:27 43° 114° (ESE) 19:04:34 145.827
HO-68 26 Nov 18:56:25 19:03:16 50° 64° (ENE) 19:10:09 435.675
AIST 1 26 Nov 18:56:52 19:01:05 47° 93° (E) 19:05:20
CUTE-I 26 Nov 18:57:46 18:59:50 12° 274° (W) 19:01:54 437.470
GONETS M04 26 Nov 18:59:21 19:08:16 85° 81° (E) 19:17:04
PHONESAT 2.4 26 Nov 19:01:53 19:03:53 14° 204° (SSW) 19:05:54 2401.200-2431.200
BEESAT 2 26 Nov 19:04:14 19:07:21 21° 113° (ESE) 19:10:31 435.950
CANX-2 26 Nov 19:05:02 19:08:48 32° 68° (ENE) 19:12:35 2200.000
DOVE 4 26 Nov 19:05:58 19:09:05 19° 63° (ENE) 19:12:07 437.250
COMPASS 1 26 Nov 19:07:43 19:11:05 24° 65° (ENE) 19:14:30 437.405
DX 1 26 Nov 19:10:22 19:12:38 14° 58° (ENE) 19:14:54 434.975-435.025
STRAND 1 26 Nov 19:18:59 19:24:01 58° 290° (WNW) 19:29:00 437.568
PRISM 26 Nov 19:25:12 19:28:00 17° 299° (WNW) 19:30:46 437.425
CINEMA 3 26 Nov 19:36:20 19:39:41 22° 65° (ENE) 19:42:58 145.822/145.860
CUTE 1.7 & AOD 2 26 Nov 19:39:06 19:43:16 67° 74° (ENE) 19:47:30 437.475
ZACube-1 26 Nov 19:40:03 19:41:45 12° 59° (ENE) 19:43:27 437.345
AIST 2 26 Nov 19:41:23 19:44:53 26° 115° (ESE) 19:48:27 435.215
VELOX 1 26 Nov 19:44:45 19:45:45 11° 56° (NE) 19:46:45 145.980
GOMX 1 26 Nov 19:49:33 19:54:11 63° 73° (ENE) 19:58:34 467.674
UKube-1 26 Nov 20:07:49 20:11:58 45° 70° (ENE) 20:16:09 .
AISAT 26 Nov 20:09:07 20:12:10 18° 61° (ENE) 20:15:13 437.250
CUBESAT XI-V 26 Nov 20:11:02 20:14:08 18° 300° (WNW) 20:17:12 437.345
SEEDS 26 Nov 20:11:15 20:15:24 65° 259° (W) 20:19:37 437.485
FUNcube-1 26 Nov 20:12:54 20:16:18 25° 66° (ENE) 20:19:41 145.935
Oscar 11 26 Nov 20:18:27 20:22:41 61° 73° (ENE) 20:26:58 145.826/435.025
BRITE-PL 26 Nov 20:21:55 20:26:42 49° 260° (W) 20:31:09 437.365/2234.400
BEESAT 3 26 Nov 20:25:07 20:29:13 63° 310° (NW) 20:33:23 437.485
AAUSAT CUBESAT 2 26 Nov 20:26:38 20:30:44 58° 260° (W) 20:34:52 437.432
DELFI C3 26 Nov 20:28:01 20:32:03 65° 74° (ENE) 20:36:07 145.870
50 SAT 26 Nov 20:35:30 20:38:37 22° 65° (ENE) 20:41:45 437.505
AIST 1 26 Nov 20:35:50 20:39:02 19° 292° (WNW) 20:42:15
PCSat 26 Nov 20:37:57 20:42:57 37° 314° (NW) 20:48:00 145.827
UWE-3 26 Nov 20:40:08 20:44:14 53° 72° (ENE) 20:48:18 435.000/436.395/437.385
CANX-2 26 Nov 20:41:14 20:44:47 26° 266° (W) 20:48:22 2200.000
BEESAT 2 26 Nov 20:41:18 20:45:20 50° 312° (NW) 20:49:27 435.950
CUBEBUG 2 26 Nov 20:41:26 20:45:38 64° 73° (ENE) 20:49:46 437.445
DOVE 4 26 Nov 20:42:08 20:46:35 52° 260° (W) 20:50:49 437.250
COMPASS 1 26 Nov 20:42:52 20:46:41 35° 263° (W) 20:50:33 437.405
DX 1 26 Nov 20:43:55 20:48:18 77° 256° (WSW) 20:52:42 434.975-435.025
HO-68 26 Nov 20:44:34 20:51:08 38° 263° (W) 20:57:46 435.675
RS-15 26 Nov 20:48:24 20:57:53 32° 6° (N) 21:07:37 29.354- 29.394
HUMSAT D 26 Nov 20:51:05 20:54:54 37° 69° (ENE) 20:58:42 437.325/437.525
GONETS M04 26 Nov 20:57:34 21:03:57 23° 283° (WNW) 21:10:19
CINEMA 3 26 Nov 21:12:38 21:16:43 39° 262° (W) 21:20:43 145.822/145.860
ZACube-1 26 Nov 21:13:22 21:17:34 80° 257° (WSW) 21:21:45 437.345
VELOX 1 26 Nov 21:17:05 21:21:34 76° 74° (ENE) 21:26:03 145.980
CUTE 1.7 & AOD 2 26 Nov 21:17:43 21:19:41 13° 272° (W) 21:21:39 437.475
ESTCUBE 1 26 Nov 21:18:59 21:23:04 33° 67° (ENE) 21:27:09 437.505/2401.250
AIST 2 26 Nov 21:19:15 21:23:20 44° 314° (NW) 21:27:29 435.215
TISAT 1 26 Nov 21:29:16 21:30:53 12° 58° (ENE) 21:32:29 437.305
GOMX 1 26 Nov 21:29:56 21:32:41 15° 269° (W) 21:35:21 467.674
NANOSAT C BR1 26 Nov 21:38:36 21:40:56 14° 90° (E) 21:43:15 145.865
SPROUT 26 Nov 21:40:58 21:43:09 14° 59° (ENE) 21:45:20 437.525
AISAT 26 Nov 21:43:59 21:48:24 58° 259° (W) 21:52:50 437.250
UKube-1 26 Nov 21:45:08 21:48:22 20° 267° (W) 21:51:37 .
QB50P1 26 Nov 21:48:08 21:51:04 18° 92° (E) 21:54:00 145.935-145.965
FUNcube-1 26 Nov 21:48:43 21:52:33 34° 263° (W) 21:56:21 145.935
CUBEBUG 1 26 Nov 21:53:43 21:58:08 68° 73° (ENE) 22:02:34 437.445
BUGSAT 1 26 Nov 21:54:41 21:57:22 17° 91° (E) 22:00:02 437.445
TIGRISAT 26 Nov 21:55:27 21:59:24 31° 96° (E) 22:03:24 435.000
Oscar 11 26 Nov 21:56:53 21:59:17 15° 271° (W) 22:01:42 145.826/435.025
BEESAT 3 26 Nov 22:05:58 22:08:17 14° 331° (NNW) 22:10:36 437.485
DELFI C3 26 Nov 22:06:01 22:07:49 13° 271° (W) 22:09:36 145.870
UNISAT 6 26 Nov 22:09:23 22:13:38 43° 99° (E) 22:17:58 437.425
50 SAT 26 Nov 22:10:01 22:13:45 36° 263° (W) 22:17:31 437.505
POPSAT HIP 1 26 Nov 22:12:26 22:16:13 31° 96° (E) 22:19:59 437.405
UWE-3 26 Nov 22:18:35 22:21:08 16° 269° (W) 22:23:40 435.000/436.395/437.385
CUBEBUG 2 26 Nov 22:20:44 22:22:47 13° 271° (W) 22:24:49 437.445
BEESAT 2 26 Nov 22:22:45 22:24:38 13° 334° (NNW) 22:26:31 435.950
PCSat 26 Nov 22:25:46 22:28:01 12° 338° (NNW) 22:30:16 145.827
HUMSAT D 26 Nov 22:27:39 22:30:51 22° 267° (W) 22:34:04 437.325/437.525
CUSAT 1 26 Nov 22:32:43 22:36:53 36° 75° (ENE) 22:42:17 437.405
ANTELSAT 26 Nov 22:38:08 22:42:36 85° 104° (ESE) 22:47:10 437.575/2403.000
ITUPSAT 1 26 Nov 22:38:55 22:40:51 12° 55° (NE) 22:42:47 437.325
ISS 26 Nov 22:44:52 22:47:41 27° 141° (SE) 22:50:32 145.825
POLYITAN 1 26 Nov 22:46:15 22:50:30 73° 103° (ESE) 22:54:43 437.675
QB50P2 26 Nov 22:47:55 22:52:10 76° 103° (ESE) 22:56:24 145.880/145.840
SWISSCUBE 26 Nov 22:48:22 22:51:16 16° 58° (ENE) 22:54:11 437.505
DUCHIFAT 1 26 Nov 22:53:24 22:57:39 85° 104° (ESE) 23:01:52 145.980
ESTCUBE 1 26 Nov 22:55:58 22:59:57 30° 265° (W) 23:03:58 437.505/2401.250
VELOX 1 26 Nov 22:56:45 22:58:42 13° 272° (W) 23:00:39 145.980
AUBIESAT-1 26 Nov 22:56:56 23:00:34 28° 59° (ENE) 23:04:29 437.475
AIST 2 26 Nov 23:01:20 23:03:05 12° 336° (NNW) 23:04:49 435.215
TISAT 1 26 Nov 23:01:48 23:06:05 87° 256° (WSW) 23:10:22 437.305
DANDE 26 Nov 23:02:14 23:06:29 54° 77° (ENE) 23:12:12 436.750
RS-15 26 Nov 23:02:33 23:13:24 54° 39° (NE) 23:24:39 29.354- 29.394
M-CUBED/EXP-1 PRIME 26 Nov 23:02:34 23:06:23 34° 61° (ENE) 23:10:30 437.505
NANOSAT C BR1 26 Nov 23:13:03 23:17:14 60° 287° (WNW) 23:21:22 145.865
SPROUT 26 Nov 23:14:22 23:18:41 75° 257° (WSW) 23:23:01 437.525
BEESAT 26 Nov 23:17:56 23:21:54 26° 63° (ENE) 23:25:52 436.000
QB50P1 26 Nov 23:23:10 23:27:14 47° 289° (WNW) 23:31:17 145.935-145.965
BUGSAT 1 26 Nov 23:29:13 23:33:10 47° 289° (WNW) 23:37:03 437.445
TIGRISAT 26 Nov 23:32:16 23:36:07 30° 293° (WNW) 23:40:02 435.000
CUBEBUG 1 26 Nov 23:32:38 23:34:59 14° 271° (W) 23:37:20 437.445
UNISAT 6 26 Nov 23:46:45 23:50:13 23° 296° (WNW) 23:53:44 437.425
POPSAT HIP 1 26 Nov 23:48:29 23:52:04 27° 294° (WNW) 23:55:38 437.405
MaSat-1 27 Nov 00:07:19 00:09:26 32° 245° (WSW) 00:11:37 437.345
ITUPSAT 1 27 Nov 00:13:08 00:17:57 79° 74° (ENE) 00:22:48 437.325
CUSAT 1 27 Nov 00:15:54 00:19:59 31° 265° (W) 00:25:12 437.405
ANTELSAT 27 Nov 00:16:46 00:18:49 13° 301° (WNW) 00:20:54 437.575/2403.000
ISS 27 Nov 00:20:53 00:24:10 63° 340° (NNW) 00:27:26 145.825
YUBILEINY 27 Nov 00:21:05 00:26:32 19° 74° (ENE) 00:31:57 435.215
SWISSCUBE 27 Nov 00:23:44 00:28:33 77° 257° (WSW) 00:33:24 437.505
POLYITAN 1 27 Nov 00:23:47 00:25:55 14° 301° (WNW) 00:28:02 437.675
STARS 27 Nov 00:24:54 00:27:52 18° 61° (ENE) 00:30:50 437.465
QB50P2 27 Nov 00:25:31 00:27:32 13° 301° (WNW) 00:29:33 145.880/145.840
DUCHIFAT 1 27 Nov 00:31:18 00:32:54 12° 302° (WNW) 00:34:29 145.980
AUBIESAT-1 27 Nov 00:31:37 00:35:27 36° 259° (W) 00:39:37 437.475
M-CUBED/EXP-1 PRIME 27 Nov 00:37:51 00:41:28 29° 261° (W) 00:45:23 437.505
DANDE 27 Nov 00:46:37 00:49:54 19° 267° (W) 00:53:51 436.750
BEESAT 27 Nov 00:55:00 00:59:33 42° 262° (W) 01:04:08 436.000
Gurwin Techsat 1B 27 Nov 01:00:14 01:01:39 11° 85° (E) 01:03:03 435.225
Oscar 19 27 Nov 01:03:53 01:08:54 49° 99° (E) 01:13:54 437.125/150
KKS-1 27 Nov 01:05:50 01:10:13 60° 72° (ENE) 01:14:36 437.445
RS-15 27 Nov 01:15:12 01:26:05 60° 244° (WSW) 01:37:26 29.354- 29.394
BEESAT 2 27 Nov 01:44:06 01:45:16 11° 23° (NNE) 01:46:26 435.950
ITUPSAT 1 27 Nov 01:54:02 01:56:26 14° 272° (W) 01:58:51 437.325
PCSat 27 Nov 01:56:20 02:00:00 18° 32° (NNE) 02:03:39 145.827
ISS 27 Nov 01:58:05 02:01:10 35° 359° (N) 02:04:14 145.825
ITAMSAT 1 27 Nov 01:59:08 02:04:17 60° 101° (ESE) 02:09:22 435.822/435.867
STARS 27 Nov 01:59:38 02:03:57 57° 259° (W) 02:08:19 437.465
HORYU 2 27 Nov 02:12:25 02:15:49 21° 93° (E) 02:19:12 437.375
YUBILEINY 27 Nov 02:13:06 02:21:53 81° 96° (E) 02:30:41 435.215
MOZHAYETS 4 27 Nov 02:20:04 02:22:18 14° 58° (ENE) 02:24:31
AIST 2 27 Nov 02:22:33 02:24:27 13° 25° (NNE) 02:26:20 435.215
Gurwin Techsat 1B 27 Nov 02:37:09 02:42:30 78° 104° (ESE) 02:47:48 435.225
Oscar 19 27 Nov 02:43:46 02:47:59 26° 298° (WNW) 02:52:13 437.125/150
KKS-1 27 Nov 02:44:34 02:47:16 16° 270° (W) 02:49:58 437.445
BEESAT 3 27 Nov 03:04:30 03:08:18 31° 42° (NE) 03:12:03 437.485
SO-50 27 Nov 03:05:55 03:10:16 49° 121° (ESE) 03:14:47 436.795
AO-7 27 Nov 03:18:37 03:26:11 36° 96° (E) 03:33:41 29.400- 29.500
BEESAT 2 27 Nov 03:20:45 03:24:44 38° 45° (NE) 03:28:40 435.950
RS-15 27 Nov 03:31:11 03:35:57 14° 266° (W) 03:40:48 29.354- 29.394
ISS 27 Nov 03:34:55 03:38:11 58° 19° (NNE) 03:41:27 145.825
PCSat 27 Nov 03:39:01 03:44:27 68° 54° (NE) 03:49:51 145.827
ITAMSAT 1 27 Nov 03:39:27 03:43:21 22° 300° (WNW) 03:47:15 435.822/435.867
JAS-2 27 Nov 03:43:01 03:47:53 20° 84° (E) 03:52:23 435.910
HORYU 2 27 Nov 03:48:25 03:52:43 46° 290° (WNW) 03:57:01 437.375
MOZHAYETS 4 27 Nov 03:54:14 03:58:51 87° 256° (WSW) 04:03:31
AIST 2 27 Nov 03:59:58 04:04:09 46° 47° (NE) 04:08:17 435.215
CUBESAT XI-V 27 Nov 04:04:41 04:06:47 13° 57° (ENE) 04:08:54 437.345
